Regional Weather Roundup
Issued by NWS

Home | Current Version | Previous Version | Text Only | Print | Product List | Glossary Off
Versions: 1 2 3 4 5 6 7 8 9 10 11 12 13 14 15 16 17 18 19 20 21 22 23 24 25 26 27 28 29 30 31 32 33 34 35 36 37 38 39 40 41 42 43 44 45 46 47 48 49 50

984
ASUS43 KMKX 252159
RWRWI

WISCONSIN REGIONAL WEATHER ROUNDUP
NATIONAL WEATHER SERVICE MILWAUKEE/SULLIVAN WI
500 PM CDT THU MAY 25 2017

NOTE: "FAIR" INDICATES FEW OR NO CLOUDS BELOW 12,000 FEET WITH NO
SIGNIFICANT WEATHER AND/OR OBSTRUCTIONS TO VISIBILITY.

WIZ001-002-006>008-014>016-023>028-252300-
NORTHWEST WISCONSIN

CITY           SKY/WX    TMP DP  RH WIND       PRES   REMARKS
SUPERIOR ARPT  NOT AVBL
ASHLAND        SUNNY     59  45  59 N12       29.70S
HAYWARD        MOSUNNY   71  45  39 S10       29.66S
SIREN          MOSUNNY   70  47  43 S7        29.66S
CUMBERLAND     PTSUNNY   64  48  55 S8        29.67R
RICE LAKE      MOSUNNY   70  47  43 SE5       29.68R
CHETEK         SUNNY     71  51  50 S6        29.67R
LADYSMITH      MOSUNNY   71  49  45 S7        29.67S
EAU CLAIRE     NOT AVBL
MENOMONIE      CLOUDY    70  51  50 SE9       29.66S
NEW RICHMOND   MOSUNNY   69  49  48 S9        29.66S
OSCEOLA        PTSUNNY   70  51  50 SE10G16   29.68S
$$

WIZ003>005-009-010-017-018-252300-
NORTH CENTRAL WISCONSIN

CITY           SKY/WX    TMP DP  RH WIND       PRES   REMARKS
MANITOWISH WTR PTSUNNY   70  46  42 SE3       29.68S
ARBOR VITAE    SUNNY     72  45  38 SE8       29.67F
WOODRUFF       SUNNY     72  45  38 SE8       29.67F
RHINELANDER    MOSUNNY   73  46  38 E9        29.68S
EAGLE RIVER    MOSUNNY   71  42  35 NE3       29.68S
LAND O LAKES   SUNNY     72  42  33 E6        29.70S
PHILLIPS       PTSUNNY   71  47  43 CALM      29.66S
TOMAHAWK       PTSUNNY   69  47  45 SE3       29.68R
MEDFORD        MOSUNNY   69  51  54 SE6       29.67S
MERRILL        CLOUDY    72  50  46 S6        29.67S
$$

WIZ029-030-035-036-043>047-252300-
CENTRAL WISCONSIN

CITY           SKY/WX    TMP DP  RH WIND       PRES   REMARKS
WAUSAU         PTSUNNY   72  49  44 SW5       29.64F
MOSINEE        MOSUNNY   72  46  40 SW5       29.67F
MARSHFIELD     MOSUNNY   71  50  47 SE6       29.65F
STEVENS POINT  SUNNY     67  48  50 E8        29.67S
WAUPACA        MOSUNNY   74  50  42 SE6       29.67S
WAUTOMA        MOSUNNY   70  51  51 SE7       29.67S
WISC RAPIDS    MOSUNNY   73  48  41 VRB5      29.67S
CAMP DOUGLAS   MOSUNNY   72  53  52 E7        29.66S
$$

WIZ011>013-019>022-031-037>040-048>050-252300-
NORTHEAST WISCONSIN

CITY           SKY/WX    TMP DP  RH WIND       PRES   REMARKS
ANTIGO         CLOUDY    65  50  58 E7        29.69S
SHAWANO        PTSUNNY   74  51  45 NE8       29.67R
OCONTO         PTSUNNY   68  48  49 E10       29.66F
STURGEON BAY   SUNNY     66  52  60 E8        29.67S
GREEN BAY      SUNNY     69  53  56 NE16      29.67S
MANITOWOC      NOT AVBL
APPLETON       NOT AVBL
CLINTONVILLE   MOSUNNY   72  46  40 SE5       29.66S
OSHKOSH        SUNNY     68  52  56 NE13      29.67S
$$

WIZ032>034-041-042-053>061-252300-
SOUTHWEST WISCONSIN

CITY           SKY/WX    TMP DP  RH WIND       PRES   REMARKS
LA CROSSE      SUNNY     74  55  51 SW9       29.65S
SPARTA         CLOUDY    73  53  48 S5        29.66S
VIROQUA        MOSUNNY   68  51  53 MISG      29.68S
BOSCOBEL       MOSUNNY   71  51  49 VRB3      29.67S
PRAIRIE DU CHI SUNNY     71  51  48 SW6       29.66S
PLATTEVILLE    PTSUNNY   69  57  65 SE3       29.68F
$$

WIZ056-057-062-063-064-067-068-252300-
SOUTH CENTRAL WISCONSIN

CITY           SKY/WX    TMP DP  RH WIND       PRES   REMARKS
REEDSBURG      MOSUNNY   71  52  50 E3        29.66S
BARABOO/DELLS  MOSUNNY   72  52  49 E8        29.66F
LONE ROCK      NOT AVBL
MINERAL POINT  MOSUNNY   72  54  53 E6        29.68S
MADISON        MOSUNNY   69  52  54 E6        29.66S
MIDDLETON      MOSUNNY   73  53  50 E7        29.67S
WATERTOWN      PTSUNNY   69  53  58 N5        29.66S
MONROE         MOSUNNY   68  52  56 NE6       29.67S
JANESVILLE     PTSUNNY   72  52  49 N12       29.67S
$$

WIZ051-052-058>065-066-070>072-252300-
SOUTHEAST WISCONSIN

CITY           SKY/WX    TMP DP  RH WIND       PRES   REMARKS
MILWAUKEE      MOSUNNY   61  52  72 N14G23    29.67R
WAUKESHA       MOSUNNY   68  48  49 NE9       29.66S
MILWAUKEE/TIMM MOSUNNY  N/A N/A N/A NE10      29.67R
RACINE         SUNNY     60  50  69 N10       29.68S
KENOSHA        MOSUNNY   65  51  60 NE10      29.67R
FOND DU LAC    SUNNY     69  51  52 N10       29.67S
SHEBOYGAN      MOSUNNY   63  55  75 NE12      29.67S
WEST BEND      CLOUDY    64  50  59 NE9       29.66R
JUNEAU         CLOUDY    67  53  60 N8        29.68R
$$

LSZ147-162-252300-
LAKE SUPERIOR

STATION/POSITION TIME  TEMP    WIND        PRES    WAVE
                       AIR SEA DIR/SP/G            HT/PER
                 (UTC) (F)     (DEG/KT/KT) (MB)    (FT/S)
$$

LMZ867-665-643>646-252300-
LAKE MICHIGAN

STATION/POSITION TIME  TEMP    WIND        PRES    WAVE
                       AIR SEA DIR/SP/G            HT/PER
                 (UTC) (F)     (DEG/KT/KT) (MB)    (FT/S)
$$

TC  - TEMPERATURE IN CELSIUS
VSB - VISIBILITY IN STATUTE MILES
WCI - WIND CHILL INDEX
HX  - HEAT INDEX





USA.gov is the U.S. government's official web portal to all federal, state and local government web resources and services.